Wind_Speed
23 23 23 24 24 25 26 27 28 28 27 27 27 27 28 28 30 31 33 35 37 38 39 40 40 41 41 41 41 41 41 41 40 40 38 36 33 30 28 27 27 27 28 30 32 34 36 38 39 41 42 43 44 44 44 43 42 40 38 37 36 35 34 35 33 31 29 28 29
21 22 22 22 22 23 24 25 26 27 27 27 26 26 26 26 27 28 28 30 32 33 35 36 37 38 39 40 40 40 41 41 41 39 37 35 32 29 27 25 24 23 23 23 25 27 30 32 35 39 42 43 45 46 46 44 42 38 35 33 32 32 33 34 34 33 32 33 33
20 20 21 21 21 22 23 23 24 25 25 26 26 26 26 26 26 26 27 27 28 30 31 33 34 35 36 36 37 38 40 40 40 38 36 34 32 30 29 27 25 24 23 23 24 26 29 32 36 39 41 43 44 45 46 45 43 38 34 32 31 32 33 34 36 36 36 37 38
19 19 20 20 20 21 21 22 22 22 23 24 26 26 27 27 26 26 26 27 27 28 29 30 30 31 32 33 35 36 38 38 38 37 35 34 33 32 32 31 29 28 28 27 27 30 34 38 41 42 41 42 43 44 44 44 42 38 35 33 32 33 34 35 37 38 39 40 40
16 17 18 18 19 19 20 20 20 20 20 22 24 26 26 26 26 26 26 26 27 27 27 28 29 30 31 32 33 34 36 36 36 36 35 34 34 34 34 34 33 33 32 32 31 33 36 40 42 42 41 40 40 41 41 41 40 38 35 34 34 34 35 36 37 39 40 40 41
15 15 16 17 17 18 18 18 18 17 18 20 23 25 25 24 24 24 25 25 25 26 27 28 29 29 30 31 32 33 34 35 35 35 35 35 34 34 34 35 35 34 34 34 34 34 36 38 40 40 39 38 38 38 38 38 37 37 36 35 35 36 36 37 38 39 40 41 41
14 14 15 16 16 17 17 17 16 16 17 19 21 23 23 23 23 24 24 24 25 26 27 27 29 29 30 30 31 32 33 33 33 34 34 34 34 34 34 34 34 34 34 34 34 35 36 37 38 38 38 37 37 36 36 35 35 35 35 36 36 37 37 38 39 39 40 40 41
14 15 15 15 16 17 18 18 17 17 18 19 20 21 21 22 24 25 25 25 26 26 26 27 28 29 29 30 31 31 32 32 32 32 32 32 32 32 32 32 33 33 32 32 33 34 35 36 36 37 37 36 36 35 34 34 34 35 36 36 37 38 39 39 39 39 39 40 39
14 14 14 15 15 16 17 18 18 18 18 19 19 20 21 23 25 26 27 27 26 26 26 26 27 28 28 29 30 30 31 31 31 31 30 30 30 30 30 31 31 31 30 30 31 32 34 35 35 35 34 34 34 34 33 33 33 35 36 37 38 39 40 40 39 39 39 39 39
16 15 15 14 14 15 16 17 18 18 18 18 19 20 22 24 26 27 28 27 27 26 26 26 26 27 27 28 29 29 29 30 30 30 29 29 29 29 29 30 30 29 29 29 29 31 33 34 33 33 32 32 32 32 32 32 33 34 36 38 40 41 41 40 39 39 38 39 39
21 19 17 16 14 14 14 15 17 17 18 18 19 20 22 24 26 27 28 27 28 27 27 26 26 26 27 27 28 28 28 28 28 28 28 28 29 29 29 29 29 29 29 29 30 31 32 32 32 31 30 30 31 31 31 32 33 34 37 39 41 41 41 40 39 38 39 40 40
25 24 23 21 18 15 14 14 14 15 16 17 18 20 22 24 26 27 28 28 28 28 27 26 26 27 27 27 27 27 27 27 27 27 27 27 28 28 28 29 29 29 30 30 31 31 31 30 29 28 29 29 30 30 31 32 33 35 37 39 40 40 40 39 39 39 40 41 41
27 27 27 26 24 20 17 14 12 12 14 15 17 19 22 24 26 27 28 28 29 28 27 26 26 27 27 27 27 27 27 26 26 26 26 26 27 28 29 29 30 30 31 31 31 31 29 28 26 26 27 28 29 30 31 32 33 35 37 39 40 40 40 40 40 40 41 41 39
27 27 27 28 28 26 22 17 14 12 12 13 16 18 21 23 25 26 27 28 28 28 27 26 26 27 27 27 27 27 27 26 26 25 25 26 27 28 29 30 30 31 31 31 30 29 27 26 25 25 26 27 29 31 32 33 34 36 37 39 40 40 40 41 41 41 40 37 33
24 25 25 26 26 27 26 23 19 15 13 13 14 17 19 22 24 25 27 28 28 27 27 26 26 26 26 27 27 27 26 25 25 25 25 26 27 29 30 30 30 30 30 29 27 26 24 23 24 24 25 27 29 31 33 34 35 36 38 39 39 40 40 40 40 38 34 29 25
21 22 23 24 24 24 25 25 24 21 18 17 16 16 18 20 23 24 26 27 27 27 27 27 27 27 27 26 26 26 25 25 25 25 25 27 28 29 30 30 30 29 28 27 25 23 22 22 23 24 26 28 30 32 33 34 35 37 38 38 38 38 37 36 33 29 25 21 19
20 21 22 22 22 21 21 23 25 24 23 20 19 18 17 19 21 24 25 26 26 26 26 26 27 27 27 26 25 25 24 24 24 25 26 27 28 29 30 30 29 27 26 24 23 22 22 23 24 25 27 29 30 32 33 34 35 36 36 36 35 33 31 28 25 22 19 17 17
21 21 20 20 19 19 19 20 22 24 24 23 20 18 18 18 20 23 24 24 24 24 25 25 26 26 26 25 25 25 25 25 25 26 27 27 28 29 29 28 26 25 24 23 22 23 23 24 26 27 28 29 30 31 32 33 33 34 33 32 30 28 25 22 19 18 17 17 17
20 20 19 17 17 16 16 16 18 20 22 22 20 18 17 17 19 21 23 23 22 23 23 24 24 25 25 25 25 25 24 25 25 26 26 27 28 28 27 26 24 23 23 23 23 24 25 26 27 27 28 28 29 30 30 31 31 30 29 27 25 22 20 19 18 17 17 17 17
18 17 16 15 13 12 12 13 14 17 19 20 19 18 17 16 16 18 20 21 21 22 23 24 24 25 25 25 25 25 25 24 25 26 27 27 27 27 26 24 23 23 23 23 24 25 26 26 26 26 27 27 28 28 28 28 28 27 25 23 21 19 19 18 18 17 17 16 15
14 13 12 12 10 10 10 11 12 14 16 18 18 18 16 14 13 14 16 19 20 22 23 24 25 25 25 25 25 26 25 25 26 26 27 27 26 25 24 23 23 22 23 24 25 25 25 25 25 25 25 25 25 26 26 25 24 23 21 20 19 18 18 18 17 16 15 14 12
10 10 10 10 9 8 8 9 9 11 12 13 13 13 11 10 10 12 14 17 20 22 24 24 25 25 26 26 26 26 26 26 26 26 26 25 24 24 23 23 22 22 23 24 24 24 23 23 23 23 23 23 23 23 22 21 20 19 19 18 18 18 17 16 15 14 12 11 9
9 9 9 8 8 8 8 9 9 10 10 9 9 8 8 8 9 11 14 18 21 23 24 24 25 25 26 26 27 27 27 27 26 25 25 24 23 23 22 22 21 22 22 22 22 22 22 22 21 21 21 20 20 19 19 18 17 17 17 17 17 16 15 14 13 11 10 9 8
10 10 10 9 8 8 8 9 10 11 11 12 11 11 11 10 11 13 16 19 21 22 23 24 25 25 26 26 26 26 26 26 25 25 24 23 22 21 21 20 20 20 20 20 19 19 20 20 19 19 18 18 17 17 16 16 16 16 16 16 15 14 13 12 10 9 8 8 8
12 12 11 11 10 9 8 8 9 10 11 12 12 12 11 11 13 15 18 19 21 22 23 23 24 24 25 25 25 25 24 24 23 23 22 21 20 19 18 18 17 16 16 16 16 16 16 16 16 16 16 16 15 15 15 15 15 15 14 14 13 12 10 9 8 7 7 8 8
14 14 13 13 13 12 11 10 10 10 11 12 12 11 11 12 14 16 17 18 19 20 21 22 23 23 24 23 23 23 22 21 20 19 18 17 16 15 15 14 13 13 13 13 13 13 13 13 14 14 14 14 14 14 14 14 13 13 13 12 10 9 8 7 7 7 7 7 7
15 15 15 15 14 14 14 14 14 14 14 14 15 15 15 16 16 17 17 17 18 19 20 22 23 23 22 22 21 20 19 17 16 14 13 12 11 11 10 10 10 10 11 12 12 13 13 13 13 12 12 12 12 12 12 12 12 12 11 9 8 7 6 6 6 6 6 6 6
14 14 14 14 14 14 14 15 15 15 16 16 17 17 18 18 18 18 18 19 19 19 20 21 21 21 20 18 16 15 13 11 10 9 8 8 7 7 7 7 8 10 12 13 13 13 13 12 12 12 11 11 11 11 11 11 11 10 8 7 6 6 5 5 5 5 5 6 6
13 13 13 13 14 14 14 14 14 15 15 16 17 17 17 18 18 18 18 18 18 18 18 18 17 16 15 12 11 9 7 7 6 6 6 6 5 5 6 8 10 12 13 13 13 12 12 11 11 11 11 11 11 11 10 10 9 8 7 6 5 5 5 5 5 5 6 6 7
12 12 12 12 12 13 12 12 13 13 14 15 15 15 15 15 15 15 15 15 15 14 13 13 12 11 9 8 7 6 5 5 5 4 4 4 5 7 9 11 13 13 13 12 12 11 10 10 10 10 10 11 10 10 9 8 7 6 5 5 4 4 5 5 5 6 6 7 8
11 10 11 11 11 11 10 10 11 12 13 13 13 13 13 12 12 11 11 10 9 9 8 8 7 6 6 5 4 3 3 3 3 3 4 6 8 10 11 13 13 13 12 11 10 10 10 10 10 10 10 10 10 9 8 7 6 5 4 4 4 5 5 6 6 7 7 8 9
10 10 10 10 9 9 9 9 9 9 10 11 11 11 10 9 8 7 6 6 5 4 4 4 3 3 3 3 3 4 4 5 6 7 8 9 10 12 12 13 12 11 10 10 9 9 10 10 10 10 10 9 8 7 6 5 5 4 4 5 5 6 6 7 7 8 8 8 9
10 9 9 9 8 8 8 7 7 8 8 9 9 9 8 7 6 5 4 3 2 1 1 2 3 4 4 5 6 7 8 9 10 10 11 11 12 12 13 12 11 11 10 10 10 10 10 10 10 9 9 8 7 6 5 5 4 5 5 5 6 6 7 7 7 8 8 8 8
9 9 8 8 8 8 7 7 7 7 7 7 7 6 5 4 3 2 1 1 2 3 4 5 6 7 7 8 9 10 11 12 12 13 13 13 12 12 12 12 11 11 10 10 10 10 9 9 8 7 6 5 5 4 4 4 5 5 6 6 6 6 6 7 7 7 7 7 7
8 8 8 8 8 7 7 7 7 6 6 5 4 3 2 1 1 1 2 3 5 6 7 8 9 9 10 10 11 11 12 13 13 13 13 13 12 12 12 12 12 11 10 9 9 8 7 6 5 5 4 4 4 4 5 5 5 5 6 6 6 6 6 6 6 6 6 6 6
8 8 8 8 8 7 7 7 6 5 4 2 2 1 2 3 4 4 5 6 7 8 10 11 11 11 12 12 12 12 12 12 12 12 12 12 12 12 12 12 11 10 9 8 7 6 5 4 4 4 4 4 4 5 5 5 4 4 4 5 5 5 5 5 5 5 6 6 7
8 8 8 8 7 7 7 6 5 4 4 3 3 4 5 6 7 7 7 8 9 10 11 12 12 13 13 13 13 12 12 11 11 12 12 12 12 12 12 11 10 8 7 6 5 4 4 4 4 4 3 3 3 3 3 3 3 4 4 5 5 5 5 5 6 6 7 7 7
8 8 8 8 7 7 7 6 6 5 5 6 6 7 7 8 9 9 9 10 11 12 13 13 13 13 13 13 13 13 13 12 12 13 13 12 11 10 9 9 8 7 5 4 3 3 3 2 2 2 2 2 2 3 4 4 5 5 6 6 7 7 7 7 7 7 7 7 7
10 9 9 8 8 8 7 7 7 8 8 9 9 9 10 10 11 11 11 11 12 13 14 14 14 14 14 14 14 14 14 14 14 13 13 12 10 9 7 7 6 5 4 3 2 1 0 1 2 3 3 4 4 5 5 6 7 7 7 8 8 8 8 7 7 7 6 6 6
11 11 10 10 10 9 9 10 10 10 11 11 12 12 12 13 13 12 12 12 13 14 15 15 15 15 15 15 15 16 16 15 14 13 12 11 10 8 6 5 4 3 2 1 1 2 3 4 5 5 5 5 6 6 7 7 8 8 8 8 8 8 8 7 6 5 5 5 5
13 12 12 12 12 12 12 12 13 14 14 15 15 15 15 15 14 14 14 14 15 16 16 16 16 16 15 15 15 15 15 14 13 12 10 9 8 7 6 4 4 3 3 3 3 3 4 5 6 6 6 6 7 7 8 8 8 8 8 8 8 7 7 6 5 5 4 5 6
Wind_Direction
251 252 252 253 254 255 256 259 261 263 264 264 264 264 263 262 261 260 259 258 258 258 258 259 259 259 259 259 260 261 262 263 264 264 265 265 265 265 266 268 270 271 271 268 265 263 261 258 257 255 254 254 253 252 252 251 251 249 248 246 244 243 244 245 241 234 226 226 230
253 254 254 255 255 256 257 258 260 262 263 265 265 266 265 264 263 262 261 260 260 260 259 259 259 259 259 260 260 261 262 262 262 262 262 262 262 261 261 263 265 268 271 272 271 268 266 263 260 258 256 255 254 253 253 253 252 251 248 244 241 239 241 243 241 235 228 225 227
258 258 258 258 257 257 258 259 261 262 264 266 267 268 267 266 265 264 264 263 263 262 261 261 261 261 261 262 262 262 262 261 261 260 260 260 259 258 257 256 257 260 265 270 273 272 268 263 259 257 256 255 254 253 253 253 252 250 247 242 238 238 240 244 245 243 238 233 232
262 263 262 262 261 260 261 262 264 266 267 268 270 270 269 268 267 267 266 265 265 264 263 263 263 263 263 263 263 262 262 261 261 260 260 260 259 258 256 255 254 256 258 263 269 269 265 259 256 255 256 255 255 254 253 252 251 249 246 242 238 238 242 246 249 250 248 245 242
266 267 266 266 264 264 263 265 266 268 269 270 270 270 270 270 269 268 266 265 265 264 264 264 264 263 263 264 263 262 262 261 261 261 261 261 261 260 259 258 258 258 258 261 265 268 265 259 256 255 255 256 255 255 254 252 250 248 245 241 238 239 242 246 249 251 252 250 247
271 271 270 269 268 266 264 264 265 267 268 268 268 268 268 268 268 267 266 265 265 265 264 263 262 262 262 262 262 262 261 261 262 262 262 262 263 262 262 262 262 262 262 262 266 268 266 262 257 255 255 255 255 255 254 251 249 246 243 240 238 239 241 245 248 250 250 248 244
276 276 276 275 272 269 266 264 263 263 263 264 264 265 265 266 267 267 267 266 266 265 263 261 260 260 260 260 260 260 260 261 261 262 263 263 264 264 265 266 266 266 266 266 268 268 267 263 259 256 256 256 255 255 253 250 246 243 242 240 239 239 241 243 246 247 246 243 239
280 280 280 280 278 274 270 266 262 260 260 260 261 263 265 266 267 268 268 267 267 266 264 261 260 259 259 259 259 260 260 261 262 263 264 265 265 266 267 267 268 268 268 269 270 270 268 265 261 258 257 257 256 255 253 248 243 241 239 239 239 239 240 242 243 243 242 239 235
282 282 282 283 283 280 275 269 264 261 259 259 260 262 265 267 267 267 267 267 267 267 265 263 261 260 260 260 260 261 261 262 263 264 266 267 268 268 269 269 269 269 271 272 273 272 270 266 263 260 259 258 257 255 252 248 242 238 237 237 237 239 239 240 240 239 238 235 233
282 283 285 287 291 289 283 274 266 261 258 258 259 262 264 266 267 266 265 265 266 266 266 264 263 262 261 261 262 262 263 264 265 266 268 269 269 270 270 269 269 270 272 273 274 272 269 266 263 260 259 258 256 253 251 246 240 237 235 235 236 237 237 237 236 235 233 232 231
281 281 283 287 294 298 294 284 271 262 257 257 258 261 263 265 265 265 264 264 264 264 265 265 264 264 264 264 265 265 266 267 268 269 269 270 270 270 270 269 269 269 270 271 270 268 266 264 262 260 258 256 253 250 247 243 239 236 235 235 235 235 234 233 232 231 230 229 229
282 280 280 281 286 295 300 296 282 268 260 258 259 262 264 265 265 264 263 262 262 262 263 264 264 265 266 267 267 266 266 266 268 270 272 272 272 271 270 269 269 268 267 266 265 264 262 261 260 259 257 254 250 245 242 239 238 236 235 235 234 233 232 231 230 229 228 227 226
285 282 279 278 278 283 291 298 294 279 267 262 263 265 266 266 265 264 262 261 261 261 261 262 263 264 266 268 266 265 266 266 267 271 274 274 273 272 270 269 268 266 265 263 262 261 260 259 259 258 255 251 246 242 238 237 236 236 235 234 233 231 230 229 228 227 226 224 222
288 286 283 280 277 277 279 285 293 294 284 273 269 268 268 267 265 263 261 261 260 260 260 259 260 261 264 266 267 268 269 271 272 274 275 276 274 271 269 268 267 265 263 262 261 260 259 259 259 258 255 250 244 240 238 237 236 236 235 233 231 229 228 227 226 225 223 220 218
291 290 288 285 282 279 276 276 280 290 298 295 285 277 272 269 266 263 261 260 259 258 258 258 258 260 263 265 267 269 271 272 272 274 276 277 273 270 269 267 265 264 262 261 261 260 259 259 259 258 254 249 244 241 239 238 237 236 234 232 229 227 225 223 222 221 219 217 216
294 293 291 289 287 284 279 275 273 277 288 299 301 294 283 275 269 265 262 260 258 258 258 259 260 261 263 265 266 268 270 270 271 273 274 274 272 269 268 265 263 262 261 261 260 260 259 259 257 255 252 247 244 241 240 239 237 235 233 230 227 225 222 220 219 217 216 217 217
294 293 291 290 288 285 281 276 271 268 271 280 292 299 296 285 275 268 263 260 259 259 259 260 262 263 264 265 266 267 268 269 271 272 271 270 269 268 265 263 261 260 260 260 260 259 258 257 255 252 249 245 242 241 240 239 236 233 230 226 224 221 219 218 217 216 216 217 216
291 289 288 286 284 281 279 275 270 264 261 262 273 287 295 291 279 269 264 262 262 261 261 262 263 263 264 265 265 266 267 268 269 269 268 267 267 265 262 260 259 259 258 257 256 255 254 253 251 248 245 242 241 239 238 236 233 229 225 222 219 218 217 216 216 215 214 212 211
285 283 281 278 277 276 275 273 268 262 257 254 259 271 285 289 280 271 266 265 265 265 264 263 263 263 263 263 263 263 264 265 266 266 266 265 263 261 259 257 256 256 254 253 251 250 249 248 247 245 242 240 238 236 234 231 227 223 220 217 215 214 213 213 212 210 209 207 206
281 278 275 272 270 271 272 270 265 259 254 251 253 261 271 278 277 273 270 268 267 266 264 262 261 261 260 260 260 260 261 262 263 263 262 261 259 257 256 255 253 252 250 248 246 245 244 243 242 241 240 237 235 231 228 224 220 217 214 212 210 209 209 208 207 205 204 203 203
281 278 274 270 267 268 270 269 263 256 249 246 246 249 254 262 270 273 272 269 266 263 260 258 257 257 257 258 259 259 260 260 259 259 258 257 255 255 254 253 252 249 247 246 244 242 241 239 238 237 235 232 229 225 221 217 214 211 209 207 205 204 204 203 201 200 199 199 202
295 290 284 280 277 278 281 282 275 266 255 245 239 238 243 255 267 271 270 266 262 259 256 254 253 253 253 255 256 257 257 256 255 254 254 254 254 253 253 252 250 247 245 243 241 240 238 236 235 232 229 225 221 217 215 212 209 206 204 202 201 200 199 198 196 195 196 199 204
326 321 315 310 306 306 307 305 299 292 283 274 265 261 264 271 274 272 268 264 260 256 254 252 251 251 250 251 251 252 252 252 252 252 252 252 252 251 251 250 247 245 243 242 240 239 237 234 230 226 221 216 212 209 207 205 204 202 201 200 198 196 194 192 191 192 196 202 212
350 346 342 336 330 325 320 314 305 298 292 289 286 285 286 287 285 278 270 264 260 256 254 252 251 249 248 248 248 248 249 249 250 250 250 250 249 249 249 248 245 243 242 242 241 239 236 231 225 218 212 207 203 201 200 199 199 199 198 196 193 190 188 187 189 193 201 210 220
351 347 341 333 326 321 319 315 306 297 291 288 288 290 292 293 288 280 273 267 262 259 256 253 251 249 247 246 246 246 247 247 248 248 249 249 248 248 247 246 245 243 242 240 237 234 230 225 218 210 203 199 197 196 196 196 195 193 192 189 186 184 185 187 193 201 211 221 230
348 344 338 328 318 309 303 300 297 294 292 290 288 287 285 283 279 275 271 267 264 261 258 254 252 249 247 245 244 244 245 245 246 248 249 250 250 249 249 247 245 241 236 231 225 219 214 209 205 202 198 196 196 196 195 193 190 187 184 182 181 183 187 195 205 216 225 233 241
344 340 335 329 321 310 300 292 288 287 287 286 283 280 277 274 272 268 265 262 259 258 256 254 251 247 245 243 242 242 243 245 246 249 252 255 257 256 254 249 240 228 219 212 206 201 196 193 193 194 195 195 195 194 191 187 184 181 179 179 182 188 198 209 221 230 238 246 253
338 332 327 324 319 312 304 296 289 285 283 283 281 279 276 273 269 265 261 258 256 254 252 249 246 244 242 241 241 243 247 251 256 261 264 266 264 260 249 233 213 202 196 194 191 189 187 187 189 190 192 191 189 186 183 180 178 177 179 183 190 201 213 226 236 244 251 256 261
330 324 319 317 313 310 304 299 293 290 288 286 283 280 276 273 269 265 262 259 256 254 251 248 246 244 243 244 247 254 263 271 275 275 270 262 247 229 209 192 183 182 183 184 184 184 185 186 188 188 187 185 182 179 177 176 177 180 186 194 206 218 230 240 248 254 258 261 264
325 320 316 313 310 307 304 303 302 301 299 294 289 284 279 274 271 267 264 262 260 259 258 258 256 255 255 258 262 268 271 270 266 257 240 214 190 176 171 171 171 173 176 180 182 183 185 185 185 183 181 179 177 177 178 180 185 192 200 211 222 232 242 248 253 258 261 264 267
322 317 312 309 305 303 303 305 309 310 307 303 297 291 285 280 276 272 271 270 269 268 268 267 264 262 260 259 254 245 233 222 201 178 164 160 157 158 160 164 166 169 173 178 181 182 182 180 179 177 176 176 177 180 185 190 196 204 214 224 234 242 247 253 257 261 266 271 277
322 315 309 304 301 299 300 303 310 314 315 310 305 299 294 289 285 282 282 283 281 277 268 258 243 230 215 197 178 166 158 149 142 139 141 146 149 153 157 161 164 167 172 176 177 175 173 172 173 174 176 178 181 186 192 199 207 217 226 235 242 246 252 257 264 271 279 286 292
327 320 314 309 305 304 304 307 314 320 320 317 312 307 302 299 296 293 292 290 281 255 200 169 157 150 143 138 136 135 133 132 133 135 140 145 149 153 156 159 161 165 170 172 170 168 168 170 172 174 177 181 186 192 201 211 222 230 237 242 247 253 260 268 279 289 297 301 302
338 333 328 324 320 319 319 321 324 326 323 319 315 313 311 309 306 299 287 224 161 142 133 126 122 120 119 120 124 127 129 131 135 140 145 148 152 154 156 157 159 163 166 165 164 164 166 170 173 176 180 186 195 205 216 226 234 240 244 249 257 268 280 291 299 305 307 305 302
356 354 350 347 345 343 342 341 340 336 329 323 319 321 328 342 27 101 123 131 131 127 121 116 113 113 114 116 118 122 127 132 138 144 149 153 157 158 158 158 158 159 159 158 158 160 165 170 174 180 189 200 211 222 230 237 244 252 260 271 284 299 310 316 316 313 309 306 305
16 14 11 8 6 4 3 1 359 357 355 356 14 53 86 101 105 109 113 117 120 119 118 116 114 115 117 118 120 122 127 133 139 145 151 157 161 161 158 156 153 151 150 150 153 159 165 174 183 194 205 217 226 235 243 252 263 279 299 315 327 334 335 332 327 321 317 315 312
32 29 25 21 19 19 21 23 26 34 48 64 80 91 100 105 107 107 108 112 115 116 116 116 116 116 117 119 122 126 130 134 139 144 148 153 156 155 153 150 146 145 145 148 154 164 176 186 197 209 221 232 244 261 282 303 322 339 349 353 351 347 341 336 332 329 326 323 319
44 40 36 33 33 35 39 46 54 63 72 80 88 94 99 102 104 105 107 109 113 116 117 117 116 116 115 117 121 126 131 135 138 140 142 144 146 146 146 144 142 143 146 151 160 175 192 205 221 243 277 308 333 351 360 4 6 5 1 356 351 347 343 341 338 335 332 328 324
54 51 49 47 49 53 58 65 70 74 79 84 90 94 97 100 103 105 108 111 112 113 115 117 116 115 115 118 124 129 133 136 138 139 141 142 142 143 142 142 142 145 150 153 154 157 113 3 10 14 15 15 17 16 14 9 6 1 356 353 350 347 344 342 340 337 335 332 328
63 61 60 61 64 68 72 76 79 82 84 88 91 94 97 100 102 106 109 112 112 112 114 116 117 119 121 126 130 133 135 138 141 143 144 144 143 141 140 138 134 128 121 103 83 58 40 33 29 27 22 18 14 9 5 2 359 356 353 350 347 344 341 339 336 335 335 335 334
71 70 71 73 75 78 80 83 85 88 90 92 94 97 99 100 102 106 110 112 113 114 116 118 121 124 128 132 135 136 138 140 142 143 143 141 138 134 128 118 98 74 55 41 39 40 36 31 25 18 11 7 4 0 358 355 353 351 348 345 342 339 336 333 331 332 336 343 344
Height
1475 1475 1475 1475 1475 1475 1476 1476 1476 1476 1476 1476 1476 1476 1476 1476 1476 1477 1477 1478 1478 1478 1478 1479 1479 1480 1481 1481 1482 1482 1483 1483 1483 1484 1484 1485 1486 1487 1487 1487 1488 1488 1488 1488 1489 1490 1490 1491 1492 1493 1494 1495 1496 1497 1498 1499 1501 1502 1503 1505 1506 1507 1507 1507 1506 1506 1507 1509 1510
1473 1473 1473 1473 1473 1473 1474 1474 1474 1474 1474 1474 1474 1474 1474 1474 1474 1475 1475 1475 1475 1476 1476 1477 1478 1478 1478 1479 1480 1480 1481 1481 1481 1482 1483 1483 1484 1485 1485 1486 1486 1486 1487 1487 1487 1488 1488 1489 1490 1491 1491 1492 1493 1494 1496 1497 1499 1500 1502 1503 1504 1504 1505 1504 1503 1503 1504 1505 1506
1472 1472 1472 1472 1472 1472 1472 1472 1472 1473 1473 1473 1473 1473 1473 1473 1473 1473 1473 1473 1473 1474 1474 1475 1475 1476 1476 1477 1478 1478 1478 1479 1479 1480 1481 1482 1482 1483 1483 1483 1484 1484 1484 1485 1485 1486 1486 1487 1487 1488 1488 1489 1490 1491 1493 1494 1497 1498 1500 1501 1502 1502 1502 1501 1501 1501 1501 1502 1502
1470 1470 1470 1470 1470 1470 1470 1470 1470 1471 1471 1471 1471 1471 1471 1471 1471 1471 1471 1471 1472 1472 1473 1473 1473 1474 1474 1475 1475 1476 1477 1477 1478 1478 1479 1480 1480 1481 1481 1481 1482 1482 1483 1483 1483 1484 1484 1485 1485 1485 1486 1487 1488 1489 1490 1492 1494 1496 1497 1498 1499 1499 1499 1498 1498 1498 1498 1498 1499
1469 1469 1469 1469 1469 1469 1469 1469 1469 1469 1469 1469 1469 1469 1469 1469 1469 1469 1469 1469 1469 1470 1470 1471 1471 1472 1472 1473 1473 1474 1475 1476 1476 1477 1478 1478 1479 1479 1479 1480 1480 1480 1481 1481 1482 1482 1482 1483 1483 1483 1483 1485 1486 1487 1488 1490 1492 1493 1494 1495 1496 1496 1496 1495 1495 1495 1495 1496 1496
1468 1468 1468 1468 1468 1467 1467 1467 1467 1468 1468 1468 1468 1468 1468 1468 1468 1468 1468 1468 1468 1468 1468 1469 1470 1470 1471 1471 1472 1473 1473 1474 1474 1475 1476 1476 1477 1478 1478 1478 1478 1479 1479 1479 1480 1480 1480 1480 1480 1481 1482 1483 1484 1485 1487 1489 1490 1491 1492 1493 1493 1493 1493 1493 1493 1493 1493 1493 1494
1467 1467 1467 1467 1466 1466 1466 1466 1466 1466 1466 1466 1466 1466 1466 1466 1466 1466 1466 1466 1466 1466 1467 1468 1468 1468 1469 1469 1470 1470 1471 1472 1472 1473 1474 1474 1475 1476 1476 1477 1477 1478 1478 1478 1478 1478 1478 1478 1479 1479 1480 1481 1483 1484 1486 1487 1488 1489 1490 1490 1490 1490 1490 1490 1490 1491 1491 1491 1492
1466 1466 1466 1465 1465 1465 1465 1464 1464 1464 1464 1464 1464 1464 1464 1465 1465 1465 1465 1465 1465 1465 1465 1466 1466 1467 1467 1468 1468 1468 1469 1470 1470 1471 1472 1473 1473 1474 1475 1475 1476 1476 1476 1477 1477 1477 1477 1477 1478 1478 1479 1480 1481 1483 1484 1485 1487 1487 1488 1488 1488 1488 1488 1488 1488 1488 1488 1489 1489
1465 1464 1464 1464 1464 1464 1463 1463 1463 1463 1463 1463 1463 1463 1463 1463 1463 1463 1464 1463 1463 1463 1464 1464 1464 1465 1465 1466 1466 1467 1467 1468 1468 1469 1470 1471 1472 1472 1473 1473 1474 1474 1475 1475 1475 1475 1475 1476 1476 1477 1478 1479 1480 1481 1482 1483 1484 1485 1485 1485 1485 1485 1485 1485 1485 1486 1486 1487 1488
1463 1463 1463 1463 1463 1462 1462 1462 1461 1461 1461 1461 1461 1461 1462 1462 1462 1462 1462 1462 1462 1462 1462 1463 1463 1463 1463 1464 1464 1465 1465 1466 1467 1467 1468 1469 1470 1470 1471 1472 1472 1473 1473 1473 1473 1474 1474 1474 1475 1476 1477 1478 1478 1479 1480 1481 1482 1483 1483 1483 1483 1483 1483 1483 1483 1483 1484 1484 1485
1462 1462 1462 1461 1461 1461 1461 1460 1460 1460 1459 1459 1459 1460 1460 1460 1460 1461 1461 1461 1461 1461 1461 1461 1461 1461 1462 1462 1462 1463 1463 1464 1465 1466 1467 1467 1468 1468 1469 1470 1470 1471 1471 1471 1472 1472 1472 1473 1474 1474 1475 1476 1477 1478 1478 1479 1480 1481 1481 1481 1481 1481 1481 1481 1482 1482 1482 1482 1483
1460 1460 1460 1460 1460 1459 1459 1459 1458 1458 1458 1458 1458 1458 1458 1459 1459 1459 1460 1460 1459 1459 1459 1459 1459 1459 1460 1460 1461 1461 1462 1463 1463 1464 1465 1466 1467 1467 1468 1468 1468 1469 1469 1469 1470 1470 1471 1472 1473 1473 1474 1475 1475 1476 1477 1477 1478 1479 1479 1479 1480 1480 1480 1480 1480 1480 1480 1480 1481
1458 1458 1458 1458 1458 1458 1458 1458 1458 1457 1457 1457 1457 1457 1457 1458 1458 1458 1458 1458 1458 1458 1458 1458 1458 1458 1458 1458 1459 1459 1460 1461 1462 1463 1464 1465 1465 1466 1466 1466 1466 1467 1467 1468 1468 1468 1469 1470 1471 1472 1473 1473 1474 1474 1475 1476 1476 1477 1477 1478 1478 1478 1478 1478 1478 1478 1478 1478 1479
1456 1456 1456 1456 1456 1456 1456 1456 1456 1456 1456 1456 1455 1456 1456 1456 1457 1457 1457 1457 1457 1457 1457 1457 1457 1457 1457 1457 1458 1458 1459 1460 1461 1462 1463 1463 1463 1464 1464 1464 1464 1465 1465 1466 1467 1468 1468 1469 1470 1471 1471 1472 1472 1473 1473 1474 1475 1475 1475 1475 1475 1475 1475 1476 1476 1476 1477 1478 1479
1454 1454 1454 1454 1454 1454 1454 1454 1455 1455 1455 1455 1454 1455 1455 1455 1456 1456 1456 1456 1456 1456 1456 1456 1455 1455 1455 1456 1456 1457 1458 1459 1460 1461 1461 1462 1462 1462 1462 1463 1463 1463 1464 1465 1466 1467 1467 1468 1468 1469 1470 1470 1471 1472 1472 1473 1473 1473 1473 1474 1474 1474 1474 1474 1474 1475 1477 1478 1480
1453 1452 1452 1452 1452 1452 1452 1452 1452 1453 1453 1454 1454 1454 1454 1454 1455 1455 1455 1455 1455 1455 1455 1454 1454 1454 1454 1455 1456 1457 1458 1458 1459 1460 1460 1460 1460 1460 1461 1461 1461 1462 1463 1464 1465 1466 1466 1467 1467 1468 1468 1469 1470 1470 1471 1471 1472 1472 1472 1473 1473 1473 1474 1474 1475 1476 1478 1480 1481
1452 1451 1450 1450 1450 1450 1450 1450 1450 1450 1452 1453 1453 1454 1454 1454 1454 1454 1454 1454 1454 1454 1454 1453 1453 1453 1453 1454 1455 1456 1457 1457 1458 1458 1458 1458 1459 1459 1459 1460 1460 1461 1462 1463 1464 1464 1465 1465 1466 1466 1467 1468 1468 1469 1470 1470 1470 1471 1471 1472 1473 1473 1474 1475 1476 1477 1479 1480 1481
1450 1450 1449 1449 1448 1448 1448 1448 1448 1448 1449 1451 1452 1453 1453 1453 1454 1454 1454 1453 1453 1453 1453 1453 1453 1453 1453 1453 1454 1455 1455 1456 1456 1456 1457 1457 1458 1458 1458 1459 1460 1461 1461 1462 1463 1463 1463 1464 1464 1465 1466 1467 1467 1468 1469 1469 1469 1470 1471 1472 1473 1473 1475 1476 1477 1478 1479 1480 1481
1448 1448 1448 1448 1447 1447 1447 1447 1447 1447 1448 1448 1449 1451 1452 1453 1453 1453 1453 1453 1452 1452 1452 1452 1452 1452 1452 1453 1453 1453 1454 1454 1455 1455 1456 1456 1456 1457 1457 1458 1459 1460 1460 1461 1461 1462 1462 1463 1463 1464 1465 1466 1466 1467 1468 1468 1469 1469 1470 1471 1473 1474 1475 1476 1477 1478 1478 1480 1481
1447 1447 1446 1446 1446 1446 1446 1446 1446 1446 1446 1447 1448 1449 1451 1452 1452 1452 1452 1452 1451 1451 1451 1451 1451 1451 1451 1451 1452 1452 1453 1453 1453 1454 1454 1455 1455 1456 1456 1457 1458 1458 1459 1459 1460 1461 1461 1462 1463 1463 1464 1465 1465 1466 1467 1468 1468 1469 1470 1472 1473 1474 1475 1476 1477 1478 1479 1480 1481
1446 1445 1445 1445 1445 1445 1445 1445 1445 1445 1445 1445 1446 1448 1450 1451 1451 1451 1451 1451 1450 1450 1450 1450 1450 1450 1450 1450 1450 1451 1451 1452 1452 1453 1453 1453 1454 1455 1456 1456 1457 1458 1458 1459 1459 1460 1461 1462 1462 1463 1463 1464 1465 1465 1466 1467 1468 1469 1471 1472 1473 1474 1475 1476 1477 1478 1479 1480 1481
1445 1445 1444 1444 1444 1444 1444 1444 1444 1444 1444 1445 1445 1447 1448 1449 1449 1449 1449 1449 1449 1449 1449 1448 1448 1448 1449 1449 1449 1450 1450 1450 1451 1451 1452 1453 1453 1454 1455 1455 1456 1457 1458 1458 1458 1459 1460 1461 1462 1463 1463 1464 1464 1466 1467 1468 1469 1470 1471 1472 1473 1474 1475 1476 1477 1478 1479 1480 1480
1445 1444 1444 1444 1443 1443 1444 1444 1444 1444 1444 1444 1445 1446 1446 1447 1447 1448 1448 1448 1448 1448 1448 1448 1448 1448 1448 1448 1448 1448 1449 1449 1450 1450 1451 1452 1453 1453 1454 1455 1455 1456 1457 1458 1458 1459 1460 1460 1461 1462 1463 1464 1465 1466 1468 1469 1470 1471 1471 1472 1473 1474 1475 1476 1477 1478 1479 1479 1480
1445 1444 1444 1444 1444 1444 1444 1444 1444 1444 1444 1445 1445 1445 1445 1446 1446 1446 1447 1447 1447 1447 1447 1446 1447 1447 1447 1447 1447 1448 1448 1448 1449 1450 1450 1451 1452 1453 1453 1454 1455 1456 1457 1457 1458 1459 1460 1460 1461 1462 1463 1465 1466 1467 1468 1469 1470 1471 1472 1473 1473 1474 1475 1476 1477 1478 1478 1479 1479
1444 1444 1444 1444 1444 1444 1444 1444 1444 1444 1444 1444 1444 1444 1445 1445 1445 1446 1446 1446 1446 1446 1446 1446 1446 1446 1446 1446 1447 1447 1448 1448 1449 1449 1450 1451 1452 1452 1453 1454 1455 1456 1457 1458 1458 1459 1460 1461 1462 1463 1464 1465 1467 1468 1469 1469 1470 1471 1472 1473 1474 1474 1475 1476 1476 1477 1478 1478 1479
1443 1443 1443 1443 1443 1443 1443 1443 1444 1444 1444 1444 1444 1444 1444 1444 1444 1445 1445 1445 1445 1445 1445 1445 1445 1445 1446 1446 1446 1447 1448 1448 1449 1449 1450 1451 1452 1453 1453 1454 1455 1456 1457 1458 1458 1460 1461 1462 1463 1464 1465 1466 1467 1468 1469 1470 1471 1471 1472 1473 1473 1474 1475 1475 1476 1477 1477 1478 1478
1443 1443 1443 1443 1443 1443 1443 1443 1443 1443 1443 1443 1443 1443 1443 1443 1443 1444 1444 1444 1444 1444 1445 1445 1445 1445 1445 1446 1446 1447 1448 1448 1449 1450 1451 1452 1453 1453 1454 1454 1455 1456 1457 1458 1459 1460 1461 1463 1464 1465 1466 1467 1468 1468 1469 1470 1471 1471 1472 1473 1473 1473 1474 1475 1476 1476 1476 1477 1477
1444 1443 1443 1443 1443 1443 1443 1443 1443 1443 1443 1443 1443 1443 1443 1443 1443 1443 1443 1443 1443 1443 1444 1444 1445 1445 1445 1446 1447 1448 1449 1450 1451 1451 1452 1452 1453 1453 1454 1455 1455 1456 1457 1458 1460 1461 1462 1463 1464 1465 1466 1467 1468 1469 1469 1470 1471 1471 1472 1472 1473 1473 1474 1474 1475 1475 1475 1476 1476
1444 1443 1443 1443 1443 1443 1443 1443 1443 1443 1443 1443 1443 1443 1443 1443 1443 1443 1443 1443 1443 1443 1444 1444 1445 1446 1447 1448 1448 1449 1450 1451 1451 1452 1452 1453 1453 1453 1454 1455 1456 1457 1458 1459 1461 1462 1463 1464 1465 1466 1467 1468 1468 1469 1469 1470 1471 1471 1472 1472 1472 1473 1473 1473 1474 1474 1474 1475 1475
1444 1444 1443 1443 1443 1443 1443 1444 1444 1444 1444 1443 1443 1443 1443 1443 1443 1443 1443 1444 1444 1444 1445 1446 1446 1447 1448 1448 1449 1450 1450 1451 1451 1452 1452 1453 1453 1454 1455 1456 1457 1458 1459 1461 1462 1463 1464 1465 1466 1466 1467 1468 1468 1469 1469 1470 1470 1471 1471 1471 1472 1472 1473 1473 1473 1473 1473 1473 1473
1444 1444 1444 1444 1444 1444 1444 1444 1444 1444 1444 1444 1444 1444 1444 1444 1444 1444 1445 1445 1445 1446 1446 1447 1447 1447 1448 1448 1449 1449 1450 1450 1451 1452 1453 1453 1454 1455 1456 1457 1458 1459 1461 1462 1463 1463 1464 1465 1466 1467 1467 1468 1468 1469 1469 1470 1470 1470 1470 1471 1471 1472 1472 1472 1472 1473 1473 1473 1472
1444 1444 1444 1444 1444 1444 1444 1444 1444 1444 1445 1445 1445 1445 1445 1445 1445 1445 1445 1446 1446 1446 1447 1447 1447 1448 1448 1448 1448 1449 1450 1450 1451 1452 1453 1454 1455 1456 1457 1458 1459 1460 1462 1462 1463 1464 1465 1465 1466 1467 1468 1468 1468 1469 1469 1469 1469 1470 1470 1470 1471 1471 1471 1471 1471 1471 1471 1471 1471
1445 1444 1444 1444 1444 1444 1444 1445 1445 1445 1445 1445 1445 1445 1445 1446 1446 1446 1446 1446 1446 1447 1447 1447 1448 1448 1448 1448 1448 1449 1450 1451 1452 1453 1454 1455 1456 1457 1458 1459 1460 1461 1462 1463 1464 1464 1465 1466 1466 1467 1467 1468 1468 1468 1468 1469 1469 1469 1469 1470 1470 1470 1470 1470 1470 1470 1470 1470 1470
1445 1445 1445 1445 1445 1445 1445 1445 1445 1445 1445 1446 1446 1446 1446 1446 1446 1447 1447 1447 1447 1447 1448 1448 1448 1448 1448 1449 1449 1450 1451 1452 1453 1454 1455 1456 1457 1458 1459 1460 1461 1462 1463 1463 1464 1465 1465 1466 1466 1467 1467 1467 1468 1468 1468 1468 1468 1469 1469 1469 1469 1469 1469 1469 1469 1469 1470 1470 1470
1446 1446 1446 1446 1446 1446 1446 1446 1446 1446 1446 1446 1446 1446 1447 1447 1447 1447 1448 1448 1448 1448 1448 1448 1448 1449 1449 1450 1450 1451 1452 1453 1453 1455 1456 1457 1458 1458 1460 1461 1462 1463 1463 1464 1465 1465 1465 1466 1466 1467 1467 1467 1468 1468 1468 1468 1468 1468 1468 1468 1468 1468 1468 1469 1469 1469 1469 1469 1469
1446 1446 1446 1446 1446 1446 1446 1446 1446 1446 1447 1447 1447 1447 1447 1448 1448 1448 1448 1448 1449 1449 1449 1449 1449 1450 1450 1450 1451 1452 1453 1454 1455 1456 1457 1458 1458 1460 1461 1462 1463 1463 1464 1464 1465 1465 1466 1466 1466 1467 1467 1467 1467 1468 1468 1468 1468 1468 1468 1468 1468 1468 1468 1469 1469 1469 1469 1469 1468
1447 1447 1447 1447 1447 1447 1447 1447 1447 1447 1447 1447 1448 1448 1448 1448 1449 1449 1449 1450 1450 1450 1450 1450 1451 1451 1451 1452 1453 1453 1454 1455 1456 1457 1458 1459 1460 1461 1462 1463 1463 1464 1464 1465 1465 1465 1466 1466 1466 1466 1467 1467 1467 1467 1467 1467 1467 1467 1468 1468 1468 1468 1468 1468 1468 1468 1468 1468 1468
1447 1447 1447 1447 1447 1447 1447 1447 1448 1448 1448 1448 1448 1449 1449 1450 1450 1450 1451 1451 1451 1451 1451 1452 1452 1452 1453 1453 1454 1455 1456 1457 1458 1459 1460 1461 1462 1462 1463 1463 1464 1464 1464 1465 1465 1465 1465 1466 1466 1466 1466 1466 1466 1467 1467 1467 1467 1468 1468 1468 1468 1468 1468 1468 1468 1468 1467 1467 1467
1448 1448 1448 1448 1448 1448 1448 1448 1448 1448 1448 1449 1449 1450 1450 1451 1451 1452 1452 1453 1453 1453 1453 1453 1453 1454 1454 1455 1456 1456 1458 1458 1459 1460 1461 1462 1463 1463 1463 1464 1464 1464 1464 1465 1465 1465 1465 1465 1466 1466 1466 1466 1467 1467 1467 1467 1467 1467 1467 1468 1468 1468 1468 1467 1467 1467 1467 1466 1466
1448 1448 1448 1448 1448 1448 1449 1449 1449 1449 1450 1450 1450 1451 1452 1452 1453 1453 1453 1454 1454 1454 1454 1454 1455 1455 1456 1457 1457 1458 1458 1459 1460 1461 1462 1462 1463 1463 1464 1464 1464 1464 1465 1465 1465 1465 1465 1466 1466 1466 1466 1467 1467 1467 1467 1467 1467 1467 1467 1467 1467 1467 1467 1467 1467 1467 1467 1466 1466
1449 1449 1449 1449 1449 1450 1450 1450 1450 1451 1451 1451 1452 1452 1453 1453 1454 1454 1455 1455 1455 1456 1456 1456 1457 1457 1458 1458 1459 1459 1460 1460 1461 1462 1463 1463 1463 1464 1464 1464 1464 1465 1465 1465 1465 1465 1466 1466 1466 1466 1466 1466 1466 1466 1467 1467 1467 1467 1467 1467 1467 1467 1467 1467 1466 1466 1466 1466 1465